Regional Weather Roundup
Issued by NWS

Home | Current Version | Previous Version | Graphics & Text | Print | Product List | Glossary On
Versions: 1 2 3 4 5 6 7 8 9 10 11 12 13 14 15 16 17 18 19 20 21 22 23 24 25 26 27 28 29 30 31 32 33 34 35 36 37 38 39 40 41 42 43 44 45 46 47 48 49 50
678
ASUS45 KABQ 050710
RWRNM
NEW MEXICO REGIONAL WEATHER ROUNDUP
NATIONAL WEATHER SERVICE ALBUQUERQUE NM
1200 AM MST MON DEC 05 2016

NOTE: "FAIR" MEANS FEW OR NO CLOUDS BELOW 12,000 FEET AGL WITH NO
       SIGNIFICANT WEATHER OR OBSTRUCTIONS TO VISION.

      THIS PRODUCT IS RELEASED AS TWO VERSIONS.  ONE VERSION NEAR
      THE TOP OF THE HOUR CONTAINING PRELIMINARY DATA FROM ALBUQUERQUE
      AND OTHER STATIONS.  A FINAL VERSION WITH ADDITIONAL DATA IS
      ISSUED ABOUT 10 MINUTES AFTER THE HOUR.

NMZ501-503-504-510>518-050800-
NORTHWEST PLATEAU/NORTHCENTRAL MOUNTAINS

CITY           SKY/WX    TMP DP  RH WIND       PRES   REMARKS
FARMINGTON     FAIR      24  19  81 E7        30.03F WCI  16
LOS ALAMOS     FAIR      35  15  45 CALM      30.02S
SANTA FE       FAIR      21  14  74 N6        30.00F WCI  13
TAOS           FAIR      19   7  58 CALM      30.01F
ANGEL FIRE     FAIR      24  13  60 S9        29.98F WCI  15

$$
NMZ402-403-502-505>509-050800-
WESTCENTRAL MOUNTAINS/SOUTHWEST MOUNTAINS

CITY           SKY/WX    TMP DP  RH WIND       PRES   REMARKS
GALLUP         FAIR      20  16  84 CALM      30.06F
GRANTS         FAIR      19  15  85 NW8       30.07F WCI   9
SILVER CITY    FAIR      30  26  86 N9        30.06F WCI  21

$$
NMZ407-409-411-412-050800-
SOUTHERN DESERTS

CITY           SKY/WX    TMP DP  RH WIND       PRES   REMARKS
DEMING         FAIR      32  27  81 SW6       30.06F WCI  26
LAS CRUCES     FAIR      35  23  60 NW8       30.06S WCI  29
HOLLOMAN AFB   FAIR      30  23  74 N3        30.08S
T OR C         FAIR      33  20  58 NW8       30.03F WCI  26

$$
NMZ519>523-050800-
CENTRAL VALLEYS/CENTRAL HIGHLANDS

CITY           SKY/WX    TMP DP  RH WIND       PRES   REMARKS
ALBUQUERQUE    FAIR      30  13  49 CALM      30.04F
DOUBLE EAGLE   FAIR      23  13  65 CALM      30.04S
MORIARTY ARPT  FAIR      15   9  78 CALM      30.02F
CLINES CORNERS FAIR      26   7  44 W15       29.98F WCI  14
BELEN          FAIR      28  16  61 CALM      30.04F
SOCORRO        FAIR      28  17  62 CALM      30.05F

$$
NMZ524>526-539-540-050800-
SOUTHCENTRAL MOUNTAINS

CITY           SKY/WX    TMP DP  RH WIND       PRES   REMARKS
RUIDOSO        FAIR      28  14  54 SW7       30.03F WCI  21

$$
NMZ527>531-050800-
NORTHEAST HIGHLANDS/NORTHEAST PLAINS

CITY           SKY/WX    TMP DP  RH WIND       PRES   REMARKS
LAS VEGAS      FAIR      30  10  43 CALM      29.91F
RATON          FAIR      19  13  77 NE9       29.87F WCI   8
CLAYTON        FAIR      33  24  69 SW16      29.84F WCI  23

$$
NMZ532>537-050800-
EASTCENTRAL PLAINS

CITY           SKY/WX    TMP DP  RH WIND       PRES   REMARKS
TUCUMCARI      FAIR      39  26  59 SW21      29.90F WCI  29
CANNON AFB     FAIR      25  25 100 S3        29.98F
CLOVIS AIRPORT FAIR      28  23  80 SW10      29.98S WCI  19

$$
NMZ028-029-538-050800-
SOUTHEAST PLAINS

CITY           SKY/WX    TMP DP  RH WIND       PRES   REMARKS
ROSWELL        FAIR      28  25  88 W6        30.00F WCI  22
ARTESIA        FAIR      32  32 100 CALM      30.03S
CARLSBAD       FAIR      32  32 100 CALM      30.02F FOG
HOBBS          FAIR      30  30 100 SW3       30.04F


$$




USA.gov is the U.S. government's official web portal to all federal, state and local government web resources and services.